SUR4091 SBCF-SAEZ

Flight info

Callsign SUR4091
Flight time N/A
Altitude 36000
Route PUDVA UZ21 VUNOX UZ38 UMRUD UN741 PAPIX PAPIX6A
Aircraft A20N/M-SDE2E3FGHIRWXY/LB1

Departure

Time 2026-05-05 20:58
Airport Tancredo Neves International Airport (SBCF)

Arrival

Time N/A
Airport Ezeiza International Airport - Ministro Pistarini (SAEZ)
Time Latitude Longitude Altitude Speed Heading
2026-05-05 20:31 -19.63321 -43.96407 2810 ft 0 kts 49°
2026-05-05 20:47 -19.63328 -43.96414 2807 ft 2 kts 46°
2026-05-05 20:47 -19.63339 -43.96426 2809 ft 2 kts 37°
2026-05-05 20:48 -19.63354 -43.96434 2809 ft 2 kts 349°
2026-05-05 20:48 -19.63367 -43.96427 2804 ft 1 kts 314°
2026-05-05 20:48 -19.63369 -43.96425 2804 ft 0 kts 314°
2026-05-05 20:52 -19.63368 -43.96426 2804 ft 1 kts 314°
2026-05-05 20:52 -19.63358 -43.96438 2808 ft 3 kts 314°
2026-05-05 20:52 -19.63333 -43.96461 2805 ft 6 kts 323°
2026-05-05 20:52 -19.63296 -43.96494 2806 ft 8 kts 319°
2026-05-05 20:53 -19.63246 -43.96540 2802 ft 11 kts 319°
2026-05-05 20:53 -19.63183 -43.96598 2802 ft 13 kts 319°
2026-05-05 20:53 -19.63110 -43.96666 2803 ft 15 kts 319°
2026-05-05 20:53 -19.63026 -43.96744 2803 ft 17 kts 319°
2026-05-05 20:54 -19.62932 -43.96828 2803 ft 19 kts 322°
2026-05-05 20:54 -19.62829 -43.96915 2803 ft 19 kts 321°
2026-05-05 20:54 -19.62784 -43.97014 2805 ft 15 kts 262°
2026-05-05 20:54 -19.62841 -43.97110 2803 ft 16 kts 245°
2026-05-05 20:55 -19.62786 -43.97189 2806 ft 15 kts 321°
2026-05-05 20:55 -19.62706 -43.97265 2803 ft 16 kts 315°
2026-05-05 20:55 -19.62616 -43.97351 2801 ft 18 kts 319°
2026-05-05 20:55 -19.62513 -43.97443 2800 ft 20 kts 320°
2026-05-05 20:56 -19.62405 -43.97543 2800 ft 21 kts 319°
2026-05-05 20:56 -19.62292 -43.97649 2802 ft 16 kts 316°
2026-05-05 20:56 -19.62308 -43.97727 2804 ft 13 kts 229°
2026-05-05 20:56 -19.62383 -43.97778 2802 ft 14 kts 170°
2026-05-05 20:57 -19.62412 -43.97760 2800 ft 0 kts 140°
2026-05-05 20:57 -19.62562 -43.97621 2799 ft 64 kts 138°
2026-05-05 20:57 -19.63064 -43.97153 2802 ft 124 kts 138°
2026-05-05 20:58 -19.63833 -43.96438 2812 ft 170 kts 139°
2026-05-05 20:58 -19.64776 -43.95579 3196 ft 182 kts 139°
2026-05-05 20:58 -19.65771 -43.94745 3894 ft 184 kts 141°
2026-05-05 20:58 -19.66776 -43.93960 4704 ft 176 kts 141°
2026-05-05 20:59 -19.67746 -43.93104 5164 ft 189 kts 134°
2026-05-05 20:59 -19.68782 -43.92108 5496 ft 211 kts 144°
2026-05-05 20:59 -19.70231 -43.91617 5894 ft 233 kts 179°
2026-05-05 20:59 -19.71798 -43.92067 6666 ft 238 kts 211°
2026-05-05 21:00 -19.72957 -43.93292 7438 ft 241 kts 235°
2026-05-05 21:00 -19.73572 -43.94957 8133 ft 247 kts 265°
2026-05-05 21:00 -19.73337 -43.96754 8878 ft 248 kts 294°
2026-05-05 21:00 -19.72368 -43.98232 9636 ft 247 kts 321°
2026-05-05 21:01 -19.70872 -43.99105 10374 ft 246 kts 343°
2026-05-05 21:01 -19.69230 -43.99705 10946 ft 252 kts 342°
2026-05-05 21:01 -19.67583 -44.00319 11164 ft 253 kts 342°
2026-05-05 21:01 -19.66146 -44.00863 11234 ft 253 kts 342°
2026-05-05 21:02 -19.64502 -44.01493 11236 ft 253 kts 341°
2026-05-05 21:02 -19.62845 -44.02132 11228 ft 252 kts 341°
2026-05-05 21:02 -19.61185 -44.02771 11224 ft 252 kts 341°
2026-05-05 21:02 -19.59551 -44.03401 11229 ft 253 kts 341°
2026-05-05 21:03 -19.57922 -44.04077 11213 ft 253 kts 331°
2026-05-05 21:03 -19.56602 -44.05314 11264 ft 256 kts 304°
2026-05-05 21:03 -19.55951 -44.07050 11263 ft 259 kts 277°
2026-05-05 21:03 -19.55971 -44.08979 11258 ft 270 kts 267°
2026-05-05 21:04 -19.56081 -44.11091 11252 ft 304 kts 267°
2026-05-05 21:04 -19.56194 -44.13465 11246 ft 335 kts 268°
2026-05-05 21:04 -19.56308 -44.15988 11565 ft 352 kts 268°
2026-05-05 21:04 -19.56500 -44.18595 12277 ft 355 kts 263°
2026-05-05 21:05 -19.56816 -44.21217 13031 ft 358 kts 263°
2026-05-05 21:05 -19.57126 -44.23822 13736 ft 361 kts 262°
2026-05-05 21:05 -19.57441 -44.26497 14388 ft 365 kts 262°
2026-05-05 21:05 -19.57751 -44.29141 15017 ft 367 kts 262°
2026-05-05 21:06 -19.58068 -44.31849 15636 ft 370 kts 262°
2026-05-05 21:06 -19.58386 -44.34570 16233 ft 373 kts 262°
2026-05-05 21:06 -19.58836 -44.37290 16815 ft 375 kts 251°
2026-05-05 21:06 -19.59988 -44.39782 17393 ft 376 kts 233°
2026-05-05 21:07 -19.61131 -44.41163 17767 ft 376 kts 221°
2026-05-05 21:07 -19.64080 -44.43037 18530 ft 377 kts 200°
2026-05-05 21:07 -19.66552 -44.44000 19070 ft 378 kts 199°
2026-05-05 21:07 -19.69036 -44.44956 19608 ft 380 kts 199°
2026-05-05 21:08 -19.71531 -44.45920 20136 ft 382 kts 200°
2026-05-05 21:08 -19.74042 -44.46896 20674 ft 384 kts 200°
2026-05-05 21:08 -19.76555 -44.47877 21196 ft 386 kts 200°
2026-05-05 21:08 -19.79092 -44.48871 21732 ft 388 kts 200°
2026-05-05 21:09 -19.81600 -44.49855 22238 ft 391 kts 200°
2026-05-05 21:09 -19.84162 -44.50861 22754 ft 393 kts 200°
2026-05-05 21:09 -19.86732 -44.51871 23256 ft 396 kts 200°
2026-05-05 21:09 -19.89318 -44.52886 23770 ft 398 kts 200°
2026-05-05 21:10 -19.91922 -44.53910 24163 ft 401 kts 200°
2026-05-05 21:10 -19.94538 -44.54938 24613 ft 402 kts 200°
2026-05-05 21:10 -19.97171 -44.55974 25024 ft 404 kts 200°
2026-05-05 21:10 -19.99822 -44.57017 25451 ft 406 kts 200°
2026-05-05 21:11 -20.02479 -44.58062 25882 ft 408 kts 200°
2026-05-05 21:11 -20.05152 -44.59114 26273 ft 411 kts 200°
2026-05-05 21:11 -20.07838 -44.60172 26675 ft 413 kts 201°
2026-05-05 21:11 -20.10544 -44.61240 27081 ft 415 kts 201°
2026-05-05 21:12 -20.13250 -44.62338 27489 ft 417 kts 201°
2026-05-05 21:12 -20.15956 -44.63458 27867 ft 419 kts 202°
2026-05-05 21:12 -20.18684 -44.64588 28244 ft 421 kts 202°
2026-05-05 21:12 -20.21432 -44.65725 28613 ft 424 kts 202°
2026-05-05 21:13 -20.24182 -44.66859 28962 ft 426 kts 202°
2026-05-05 21:13 -20.26945 -44.67998 29321 ft 427 kts 201°
2026-05-05 21:13 -20.29728 -44.69144 29649 ft 429 kts 202°
2026-05-05 21:13 -20.31572 -44.69903 29871 ft 431 kts 202°
2026-05-05 21:14 -20.35318 -44.71447 30321 ft 433 kts 202°
2026-05-05 21:14 -20.37185 -44.72217 30523 ft 434 kts 202°
2026-05-05 21:14 -20.40947 -44.73768 30944 ft 435 kts 202°
2026-05-05 21:14 -20.43774 -44.74934 31256 ft 436 kts 202°
2026-05-05 21:15 -20.46594 -44.76129 31618 ft 435 kts 205°
2026-05-05 21:15 -20.49251 -44.77551 32042 ft 432 kts 211°
2026-05-05 21:15 -20.51773 -44.79255 32476 ft 429 kts 216°
2026-05-05 21:15 -20.54169 -44.81131 32885 ft 426 kts 217°
2026-05-05 21:16 -20.56559 -44.82991 33293 ft 424 kts 217°
2026-05-05 21:16 -20.58940 -44.84837 33699 ft 422 kts 217°
2026-05-05 21:16 -20.61306 -44.86673 34083 ft 420 kts 217°
2026-05-05 21:16 -20.63665 -44.88506 34424 ft 418 kts 217°
2026-05-05 21:17 -20.66010 -44.90330 34702 ft 417 kts 217°
2026-05-05 21:17 -20.68348 -44.92152 34977 ft 416 kts 217°
2026-05-05 21:17 -20.70677 -44.93968 35257 ft 414 kts 217°
2026-05-05 21:17 -20.73004 -44.95782 35519 ft 413 kts 217°
2026-05-05 21:18 -20.75323 -44.97591 35774 ft 412 kts 217°
2026-05-05 21:18 -20.77632 -44.99394 36036 ft 411 kts 217°
2026-05-05 21:18 -20.79906 -45.01169 36171 ft 410 kts 216°
2026-05-05 21:18 -20.82207 -45.02966 36194 ft 410 kts 216°
2026-05-05 21:19 -20.86797 -45.06553 36195 ft 409 kts 216°
2026-05-05 21:19 -20.91391 -45.10145 36193 ft 409 kts 216°
2026-05-05 21:20 -20.95987 -45.13742 36191 ft 409 kts 217°
2026-05-05 21:20 -21.00543 -45.17310 36191 ft 409 kts 217°
2026-05-05 21:21 -21.05129 -45.20905 36189 ft 409 kts 217°
2026-05-05 21:21 -21.09717 -45.24503 36190 ft 409 kts 217°
2026-05-05 21:22 -21.13528 -45.27495 36189 ft 409 kts 216°
2026-05-05 21:22 -21.18858 -45.31682 36190 ft 409 kts 217°
2026-05-05 21:23 -21.23442 -45.35286 36188 ft 409 kts 217°
2026-05-05 21:23 -21.28024 -45.38892 36190 ft 408 kts 217°
2026-05-05 21:24 -21.31829 -45.41887 36193 ft 408 kts 217°
2026-05-05 21:24 -21.37150 -45.46080 36189 ft 408 kts 217°
2026-05-05 21:25 -21.40954 -45.49081 36188 ft 408 kts 217°
2026-05-05 21:25 -21.45534 -45.52695 36190 ft 408 kts 217°
2026-05-05 21:26 -21.50108 -45.56307 36191 ft 408 kts 217°
2026-05-05 21:26 -21.54684 -45.59924 36191 ft 408 kts 217°
2026-05-05 21:27 -21.59256 -45.63541 36197 ft 408 kts 217°
2026-05-05 21:27 -21.64569 -45.67748 36195 ft 408 kts 217°
2026-05-05 21:28 -21.68366 -45.70757 36198 ft 408 kts 217°
2026-05-05 21:28 -21.72942 -45.74385 36198 ft 408 kts 217°
2026-05-05 21:29 -21.77505 -45.78007 36205 ft 408 kts 217°
2026-05-05 21:29 -21.82072 -45.81635 36204 ft 408 kts 217°
2026-05-05 21:30 -21.86633 -45.85260 36205 ft 408 kts 217°
2026-05-05 21:30 -21.91168 -45.88869 36206 ft 407 kts 217°
2026-05-05 21:31 -21.95721 -45.92493 36207 ft 407 kts 217°
2026-05-05 21:31 -22.00288 -45.96132 36211 ft 408 kts 217°
2026-05-05 21:32 -22.04844 -45.99765 36210 ft 407 kts 217°
2026-05-05 21:32 -22.09400 -46.03402 36213 ft 407 kts 217°
2026-05-05 21:33 -22.13951 -46.07037 36213 ft 407 kts 217°
2026-05-05 21:33 -22.18507 -46.10680 36214 ft 407 kts 217°